Location: Forst
(46.9333°N, 15.4333°E)
Time: 01:00:13
(UTC+00:00)

X-37B - Pass Details

Date: 01 October 2021
Orbit: 385 x 389 km, 45.0° (Epoch: 13 October)

Event Time Altitude Azimuth Distance (km) Brightness Sun altitude
Exits shadow 04:16:04 11° 261° (W) 1,375 2.7 -7.8°
Maximum altitude 04:18:40 26° 204° (SSW) 803 1.9 -7.4°
Drops below altitude 10° 04:21:23 10° 145° (SE) 1,410 3.9 -6.9°
Sets 04:23:38 0° 132° (SE) 2,262 5.2 -6.5°
